Location: Whitehorse
(60.7170°N, 135.0500°W)
Time: 06:39:03
(UTC-07:00)

SL-16 R/B - Visible Passes

Search period start: 27 May 2017 00:00
Search period end: 06 June 2017 00:00
Orbit: 840 x 850 km, 71.0° (Epoch: 26 May)

Date Brightness Start Highest point End Pass type
(mag) Time Alt. Az. Time Alt. Az. Time Alt. Az.
27 May 3.4 01:52:38 10° NW 01:58:10 46° NNE 02:03:38 10° ESE visible
28 May 3.4 01:38:34 10° NW 01:44:04 46° NNE 01:49:33 10° ESE visible
29 May 3.4 01:24:29 10° NW 01:29:59 45° NNE 01:35:27 10° ESE visible
29 May 2.2 03:08:48 10° NW 03:14:31 73° SW 03:20:10 10° SSE visible
30 May 3.4 01:10:25 10° NW 01:15:54 45° NNE 01:21:21 10° ESE visible
30 May 2.2 02:54:44 10° NW 03:00:27 74° SW 03:06:07 10° SSE visible
31 May 3.4 00:56:20 10° NW 01:01:49 44° NNE 01:07:16 10° ESE visible
31 May 2.2 02:40:40 10° NW 02:46:23 76° SW 02:52:03 10° SSE visible
01 Jun 3.4 00:42:16 10° NW 00:47:44 44° NNE 00:53:10 10° ESE visible
01 Jun 2.2 02:26:36 10° NW 02:32:19 77° SW 02:37:59 10° SSE visible
02 Jun 2.2 02:12:32 10° NW 02:18:15 78° SW 02:23:56 10° SSE visible
03 Jun 2.2 01:58:28 10° NW 02:04:11 80° SW 02:09:53 10° SSE visible
04 Jun 2.3 01:44:23 10° NW 01:50:08 81° SW 01:55:49 10° SSE visible
05 Jun 2.3 01:30:20 10° NW 01:36:04 83° SW 01:41:45 10° SE visible
